TimeEST,TemperatureF,Dew PointF,Humidity,Sea Level PressureIn,VisibilityMPH,Wind Direction,Wind SpeedMPH,Gust SpeedMPH,PrecipitationIn,Events,Conditions,WindDirDegrees,DateUTC
12:54 AM,26.1,19.0,75,30.43,10.0,East,8.1,-,N/A,,Clear,90,2013-01-27 05:54:00
1:54 AM,24.1,19.0,81,30.42,10.0,ESE,4.6,-,N/A,,Clear,110,2013-01-27 06:54:00
2:54 AM,24.1,19.9,84,30.41,8.0,East,6.9,-,N/A,,Clear,100,2013-01-27 07:54:00
3:54 AM,24.1,21.0,88,30.41,7.0,ESE,6.9,-,N/A,,Clear,110,2013-01-27 08:54:00
4:54 AM,23.0,19.9,88,30.41,7.0,NE,3.5,-,N/A,,Clear,50,2013-01-27 09:54:00
5:54 AM,21.9,19.0,89,30.40,7.0,East,6.9,-,N/A,,Clear,90,2013-01-27 10:54:00
6:54 AM,21.9,19.0,89,30.42,8.0,East,8.1,-,N/A,,Clear,90,2013-01-27 11:54:00
7:54 AM,24.1,21.0,88,30.43,7.0,East,8.1,-,N/A,,Clear,100,2013-01-27 12:54:00
8:54 AM,27.0,21.9,81,30.42,8.0,East,9.2,-,N/A,,Clear,100,2013-01-27 13:54:00
9:54 AM,32.0,21.9,66,30.42,10.0,ESE,9.2,-,N/A,,Clear,110,2013-01-27 14:54:00
10:54 AM,35.1,23.0,61,30.42,10.0,SE,9.2,-,N/A,,Clear,130,2013-01-27 15:54:00
11:54 AM,37.0,21.9,54,30.41,10.0,SE,9.2,-,N/A,,Clear,130,2013-01-27 16:54:00
12:54 PM,39.9,25.0,55,30.39,10.0,SE,5.8,-,N/A,,Clear,130,2013-01-27 17:54:00
1:54 PM,43.0,24.1,47,30.35,10.0,SE,6.9,-,N/A,,Overcast,140,2013-01-27 18:54:00
2:54 PM,45.0,25.0,46,30.32,10.0,SE,11.5,-,N/A,,Overcast,140,2013-01-27 19:54:00
3:54 PM,43.0,27.0,53,30.32,10.0,SSE,5.8,-,N/A,,Overcast,150,2013-01-27 20:54:00
4:54 PM,44.1,27.0,51,30.31,10.0,SSE,9.2,-,N/A,,Overcast,150,2013-01-27 21:54:00
5:54 PM,44.1,30.9,60,30.29,10.0,South,9.2,-,N/A,,Overcast,170,2013-01-27 22:54:00
6:54 PM,44.1,32.0,63,30.29,10.0,SSE,12.7,-,0.00,Rain,Light Rain,160,2013-01-27 23:54:00
7:54 PM,42.1,35.1,76,30.27,10.0,SSE,12.7,-,0.01,Rain,Light Rain,150,2013-01-28 00:54:00
8:41 PM,41.0,37.4,87,30.24,7.0,South,11.5,-,0.03,Rain,Rain,170,2013-01-28 01:41:00
8:54 PM,41.0,37.9,89,30.26,6.0,South,11.5,-,0.04,Rain,Light Rain,170,2013-01-28 01:54:00
9:54 PM,41.0,39.9,96,30.24,5.0,South,12.7,-,0.07,Rain,Light Rain,170,2013-01-28 02:54:00
10:54 PM,41.0,39.9,96,30.23,6.0,SSE,11.5,-,0.05,Rain,Light Rain,160,2013-01-28 03:54:00
11:54 PM,41.0,39.9,96,30.22,8.0,South,11.5,-,0.01,Rain,Light Rain,180,2013-01-28 04:54:00